Skip Page Navigation
NASA JPL Caltech
NASA Logo - Jet Propulsion Laboratory + View the NASA Portal
+ Center for Near-Earth Object Studies
JPL Home Earth Solar System Stars & Galaxies Technology
JPL Solar System Dynamics
BODIES ORBITS EPHEMERIDES TOOLS PHYSICAL DATA DISCOVERY FAQ SITE MAP
JPL Small-Body Database Browser
Search: [ help ]  
233264 (2005 YP206)
Classification: Main-belt Asteroid          SPK-ID: 2233264
Ephemeris | Orbit Diagram | Orbital Elements | Mission Design | Physical Parameters | Discovery Circumstances ]

[ show orbit diagram ]
Orbital Elements at Epoch 2459000.5 (2020-May-31.0) TDB
Reference: JPL 12 (heliocentric ecliptic J2000)
 Element Value Uncertainty (1-sigma)   Units 
e .1655218558119564 4.6343e-08  
a 2.661758374264542 2.7616e-08 au
q 2.221179188433259 1.2466e-07 au
i 11.69699291065329 7.7424e-06 deg
node 277.1855696045904 4.0946e-05 deg
peri 149.3933541413837 5.2482e-05 deg
M 148.2924266996519 3.2236e-05 deg
tp 2458347.116983039321
(2018-Aug-16.61698304)
0.00013887 TDB
period 1586.175985792244
4.34
2.4685e-05
6.758e-08
d
yr
n .2269609445765197 3.5321e-09 deg/d
Q 3.102337560095826 3.2187e-08 au
  Orbit Determination Parameters
   # obs. used (total)      234  
   data-arc span      6708 days (18.37 yr)  
   first obs. used      2000-09-28  
   last obs. used      2019-02-09  
   planetary ephem.      DE431  
   SB-pert. ephem.      SB431-N16  
   condition code      0  
   norm. resid. RMS      .53602  
   source      ORB  
   producer      Otto Matic  
   solution date      2019-Jul-14 06:17:19  

Additional Information
 Earth MOID = 1.24389 au 
 Jupiter MOID = 2.19669 au 
 T_jup = 3.336 
[ show covariance matrix ]

Ephemeris | Orbit Diagram | Orbital Elements | Mission Design | Physical Parameters | Discovery Circumstances ]

Physical Parameter Table
Parameter Symbol Value Units Sigma Reference Notes
absolute magnitude H 16.2   n/a MPO470483  
diameter diameter 1.996 km 0.446 urn:nasa:pds:neowise_diameters_albedos::2.0[mainbelt] (http://adsabs.harvard.edu/abs/2011ApJ...741...68M)  
geometric albedo albedo 0.177   0.118 urn:nasa:pds:neowise_diameters_albedos::2.0[mainbelt] (http://adsabs.harvard.edu/abs/2011ApJ...741...68M)  

233264 (2005 YP206)          Discovered 2005-Dec-27 by Spacewatch at Kitt Peak
Reference: 20100228/Numbers.arcLast Updated: 2010-03-03

Alternate Designations
 2005 YP206 = 2000 SB323 
Ephemeris | Orbit Diagram | Orbital Elements | Mission Design | Physical Parameters | Discovery Circumstances ]
ABOUT SSD CREDITS/AWARDS PRIVACY/COPYRIGHT GLOSSARY LINKS
FirstGov 2020-Aug-08 12:59 UT
(server date/time)  
NASA Home Page
Site Manager:   Ryan S. Park
Webmaster  Alan B. Chamberlin